Time,TemperatureF,DewpointF,PressureIn,WindDirection,WindDirectionDegrees,WindSpeedMPH,WindSpeedGustMPH,Humidity,HourlyPrecipIn,Conditions,Clouds,dailyrainin,SolarRadiationWatts/m^2,SoftwareType,DateUTC
2013-01-15 00:04:00,23.2,17.6,30.30,South,181,5.0,7.0,79,0.00,,,0.00,0.0,meteohub,2013-01-15 06:04:00,
2013-01-15 00:09:00,23.4,17.8,30.30,South,181,3.0,7.0,79,0.00,,,0.00,0.0,meteohub,2013-01-15 06:09:00,
2013-01-15 00:14:00,23.4,18.1,30.30,South,178,1.0,7.0,80,0.00,,,0.00,0.0,meteohub,2013-01-15 06:14:00,
2013-01-15 00:19:00,23.4,18.1,30.30,South,178,5.0,7.0,80,0.00,,,0.00,0.0,meteohub,2013-01-15 06:19:00,
2013-01-15 00:24:00,23.4,18.3,30.30,South,180,3.0,7.0,81,0.00,,,0.00,0.0,meteohub,2013-01-15 06:24:00,
2013-01-15 00:29:00,23.4,18.7,30.30,South,179,5.0,6.0,82,0.00,,,0.00,0.0,meteohub,2013-01-15 06:29:00,
2013-01-15 00:34:00,23.4,19.0,30.30,South,178,6.0,8.0,83,0.00,,,0.00,0.0,meteohub,2013-01-15 06:34:00,
2013-01-15 00:39:00,23.2,19.0,30.29,SSE,167,2.0,8.0,84,0.00,,,0.00,0.0,meteohub,2013-01-15 06:39:00,
2013-01-15 00:44:00,23.2,19.4,30.29,South,178,5.0,8.0,85,0.00,,,0.00,0.0,meteohub,2013-01-15 06:44:00,
2013-01-15 00:49:00,23.0,19.4,30.29,South,172,1.0,7.0,86,0.00,,,0.00,0.0,meteohub,2013-01-15 06:49:00,
2013-01-15 00:54:00,22.8,19.2,30.28,South,171,1.0,7.0,86,0.00,,,0.00,0.0,meteohub,2013-01-15 06:54:00,
2013-01-15 01:00:00,22.8,19.2,30.28,South,170,1.0,7.0,86,0.00,,,0.00,0.0,meteohub,2013-01-15 07:00:00,
2013-01-15 01:05:00,22.6,19.4,30.28,South,170,1.0,4.0,87,0.00,,,0.00,0.0,meteohub,2013-01-15 07:05:00,
2013-01-15 01:10:00,22.6,19.4,30.28,South,170,1.0,4.0,87,0.00,,,0.00,0.0,meteohub,2013-01-15 07:10:00,
2013-01-15 01:15:00,22.5,19.4,30.27,South,170,0.0,4.0,88,0.00,,,0.00,0.0,meteohub,2013-01-15 07:15:00,
2013-01-15 01:20:00,22.5,19.4,30.27,South,170,0.0,4.0,88,0.00,,,0.00,0.0,meteohub,2013-01-15 07:20:00,
2013-01-15 01:25:00,22.3,19.2,30.27,South,170,0.0,4.0,88,0.00,,,0.00,0.0,meteohub,2013-01-15 07:25:00,
2013-01-15 01:30:00,21.9,18.9,30.28,South,170,0.0,3.0,88,0.00,,,0.00,0.0,meteohub,2013-01-15 07:30:00,
2013-01-15 01:35:00,21.6,18.5,30.27,South,170,0.0,3.0,88,0.00,,,0.00,0.0,meteohub,2013-01-15 07:35:00,
2013-01-15 01:40:00,21.2,18.1,30.27,South,170,1.0,3.0,88,0.00,,,0.00,0.0,meteohub,2013-01-15 07:40:00,
2013-01-15 01:45:00,20.8,17.8,30.27,South,170,2.0,3.0,88,0.00,,,0.00,0.0,meteohub,2013-01-15 07:45:00,
2013-01-15 01:50:00,20.7,17.6,30.27,South,170,2.0,3.0,88,0.00,,,0.00,0.0,meteohub,2013-01-15 07:50:00,
2013-01-15 01:55:00,20.7,18.0,30.27,South,170,2.0,3.0,89,0.00,,,0.00,0.0,meteohub,2013-01-15 07:55:00,
2013-01-15 02:00:00,20.5,17.8,30.27,South,170,3.0,3.0,89,0.00,,,0.00,0.0,meteohub,2013-01-15 08:00:00,
2013-01-15 02:05:00,20.5,17.8,30.27,South,170,2.0,4.0,89,0.00,,,0.00,0.0,meteohub,2013-01-15 08:05:00,
2013-01-15 02:10:00,20.1,17.4,30.27,South,170,4.0,4.0,89,0.00,,,0.00,0.0,meteohub,2013-01-15 08:10:00,
2013-01-15 02:15:00,19.8,17.1,30.27,South,170,4.0,5.0,89,0.00,,,0.00,0.0,meteohub,2013-01-15 08:15:00,
2013-01-15 02:20:00,19.4,16.7,30.27,South,170,3.0,5.0,89,0.00,,,0.00,0.0,meteohub,2013-01-15 08:20:00,
2013-01-15 02:26:00,18.9,16.2,30.27,South,170,4.0,5.0,89,0.00,,,0.00,0.0,meteohub,2013-01-15 08:26:00,
2013-01-15 02:31:00,18.3,15.8,30.27,South,173,5.0,6.0,90,0.00,,,0.00,0.0,meteohub,2013-01-15 08:31:00,
2013-01-15 02:36:00,18.0,15.4,30.27,South,180,6.0,6.0,90,0.00,,,0.00,0.0,meteohub,2013-01-15 08:36:00,
2013-01-15 02:41:00,17.8,15.3,30.27,South,181,7.0,7.0,90,0.00,,,0.00,0.0,meteohub,2013-01-15 08:41:00,
2013-01-15 02:46:00,17.6,15.3,30.27,South,182,7.0,8.0,90,0.00,,,0.00,0.0,meteohub,2013-01-15 08:46:00,
2013-01-15 02:51:00,17.6,15.3,30.27,South,184,9.0,9.0,90,0.00,,,0.00,0.0,meteohub,2013-01-15 08:51:00,
2013-01-15 02:56:00,17.4,15.1,30.27,South,186,8.0,9.0,90,0.00,,,0.00,0.0,meteohub,2013-01-15 08:56:00,
2013-01-15 03:01:00,17.2,14.9,30.28,South,186,8.0,9.0,90,0.00,,,0.00,0.0,meteohub,2013-01-15 09:01:00,
2013-01-15 03:06:00,17.1,14.7,30.28,South,181,6.0,9.0,90,0.00,,,0.00,0.0,meteohub,2013-01-15 09:06:00,
2013-01-15 03:11:00,16.3,13.6,30.28,South,180,6.0,9.0,89,0.00,,,0.00,0.0,meteohub,2013-01-15 09:11:00,
2013-01-15 03:16:00,16.2,13.5,30.29,South,178,6.0,9.0,89,0.00,,,0.00,0.0,meteohub,2013-01-15 09:16:00,
2013-01-15 03:21:00,16.2,13.8,30.29,South,178,5.0,7.0,90,0.00,,,0.00,0.0,meteohub,2013-01-15 09:21:00,
2013-01-15 03:26:00,16.2,13.8,30.29,South,178,6.0,7.0,90,0.00,,,0.00,0.0,meteohub,2013-01-15 09:26:00,
2013-01-15 03:31:00,16.5,14.4,30.29,South,178,5.0,7.0,91,0.00,,,0.00,0.0,meteohub,2013-01-15 09:31:00,
2013-01-15 03:36:00,16.9,14.7,30.29,South,178,5.0,6.0,91,0.00,,,0.00,0.0,meteohub,2013-01-15 09:36:00,
2013-01-15 03:41:00,17.1,14.9,30.29,South,178,5.0,6.0,91,0.00,,,0.00,0.0,meteohub,2013-01-15 09:41:00,
2013-01-15 03:46:00,17.1,14.7,30.29,South,178,6.0,6.0,90,0.00,,,0.00,0.0,meteohub,2013-01-15 09:46:00,
2013-01-15 03:51:00,17.1,14.9,30.29,South,178,5.0,7.0,91,0.00,,,0.00,0.0,meteohub,2013-01-15 09:51:00,
2013-01-15 03:56:00,17.1,14.9,30.29,South,187,5.0,7.0,91,0.00,,,0.00,0.0,meteohub,2013-01-15 09:56:00,
2013-01-15 04:01:00,17.4,15.3,30.29,South,188,5.0,7.0,91,0.00,,,0.00,0.0,meteohub,2013-01-15 10:01:00,
2013-01-15 04:06:00,17.8,15.6,30.29,South,188,5.0,6.0,91,0.00,,,0.00,0.0,meteohub,2013-01-15 10:06:00,
2013-01-15 04:11:00,17.8,15.6,30.29,South,189,6.0,6.0,91,0.00,,,0.00,0.0,meteohub,2013-01-15 10:11:00,
2013-01-15 04:16:00,18.0,15.8,30.29,South,189,5.0,6.0,91,0.00,,,0.00,0.0,meteohub,2013-01-15 10:16:00,
2013-01-15 04:21:00,18.0,15.4,30.28,South,189,5.0,6.0,90,0.00,,,0.00,0.0,meteohub,2013-01-15 10:21:00,
2013-01-15 04:26:00,18.0,15.4,30.29,South,189,4.0,6.0,90,0.00,,,0.00,0.0,meteohub,2013-01-15 10:26:00,
2013-01-15 04:31:00,17.8,15.3,30.28,South,189,5.0,6.0,90,0.00,,,0.00,0.0,meteohub,2013-01-15 10:31:00,
2013-01-15 04:37:00,17.8,15.3,30.27,South,189,3.0,6.0,90,0.00,,,0.00,0.0,meteohub,2013-01-15 10:37:00,
2013-01-15 04:42:00,17.8,15.3,30.28,South,189,0.0,6.0,90,0.00,,,0.00,0.0,meteohub,2013-01-15 10:42:00,
2013-01-15 04:47:00,17.8,15.3,30.27,South,189,2.0,5.0,90,0.00,,,0.00,0.0,meteohub,2013-01-15 10:47:00,
2013-01-15 04:52:00,18.0,15.4,30.27,South,189,3.0,4.0,90,0.00,,,0.00,0.0,meteohub,2013-01-15 10:52:00,
2013-01-15 04:57:00,18.0,15.4,30.27,South,189,2.0,4.0,90,0.00,,,0.00,0.0,meteohub,2013-01-15 10:57:00,
2013-01-15 05:02:00,18.0,15.4,30.27,South,189,3.0,4.0,90,0.00,,,0.00,0.0,meteohub,2013-01-15 11:02:00,
2013-01-15 05:07:00,18.0,15.4,30.27,South,189,3.0,4.0,90,0.00,,,0.00,0.0,meteohub,2013-01-15 11:07:00,
2013-01-15 05:12:00,18.0,15.4,30.27,South,189,3.0,4.0,90,0.00,,,0.00,0.0,meteohub,2013-01-15 11:12:00,
2013-01-15 05:17:00,18.0,15.4,30.27,South,189,5.0,5.0,90,0.00,,,0.00,0.0,meteohub,2013-01-15 11:17:00,
2013-01-15 05:22:00,18.0,15.4,30.27,South,189,5.0,5.0,90,0.00,,,0.00,0.0,meteohub,2013-01-15 11:22:00,
2013-01-15 05:27:00,18.0,15.4,30.28,South,189,5.0,6.0,90,0.00,,,0.00,0.0,meteohub,2013-01-15 11:27:00,
2013-01-15 05:32:00,18.0,15.4,30.28,South,189,5.0,6.0,90,0.00,,,0.00,0.0,meteohub,2013-01-15 11:32:00,
2013-01-15 05:37:00,17.8,15.3,30.27,South,189,4.0,6.0,90,0.00,,,0.00,0.0,meteohub,2013-01-15 11:37:00,
2013-01-15 05:42:00,17.8,15.3,30.27,South,189,4.0,6.0,90,0.00,,,0.00,0.0,meteohub,2013-01-15 11:42:00,
2013-01-15 05:47:00,18.0,15.8,30.27,South,189,6.0,6.0,91,0.00,,,0.00,0.0,meteohub,2013-01-15 11:47:00,
2013-01-15 05:52:00,18.0,15.4,30.27,South,189,5.0,6.0,90,0.00,,,0.00,0.0,meteohub,2013-01-15 11:52:00,
2013-01-15 05:57:00,18.0,15.8,30.27,South,189,4.0,6.0,91,0.00,,,0.00,0.0,meteohub,2013-01-15 11:57:00,
2013-01-15 06:02:00,18.0,15.8,30.27,South,189,4.0,6.0,91,0.00,,,0.00,0.0,meteohub,2013-01-15 12:02:00,
2013-01-15 06:07:00,18.0,15.8,30.27,South,189,4.0,6.0,91,0.00,,,0.00,0.0,meteohub,2013-01-15 12:07:00,
2013-01-15 06:12:00,18.0,15.8,30.27,South,189,5.0,5.0,91,0.00,,,0.00,0.0,meteohub,2013-01-15 12:12:00,
2013-01-15 06:17:00,18.0,15.8,30.27,South,189,5.0,5.0,91,0.00,,,0.00,0.0,meteohub,2013-01-15 12:17:00,
2013-01-15 06:22:00,17.6,15.4,30.27,South,189,4.0,5.0,91,0.00,,,0.00,0.0,meteohub,2013-01-15 12:22:00,
2013-01-15 06:27:00,17.6,15.4,30.27,South,189,4.0,5.0,91,0.00,,,0.00,0.0,meteohub,2013-01-15 12:27:00,
2013-01-15 06:32:00,17.2,15.1,30.27,South,189,5.0,5.0,91,0.00,,,0.00,0.0,meteohub,2013-01-15 12:32:00,
2013-01-15 06:37:00,16.7,14.4,30.27,South,189,4.0,5.0,90,0.00,,,0.00,0.0,meteohub,2013-01-15 12:37:00,
2013-01-15 06:42:00,16.3,14.0,30.27,South,189,4.0,5.0,90,0.00,,,0.00,0.0,meteohub,2013-01-15 12:42:00,
2013-01-15 06:48:00,15.8,13.1,30.27,South,189,4.0,5.0,89,0.00,,,0.00,0.0,meteohub,2013-01-15 12:48:00,
2013-01-15 06:53:00,15.4,12.7,30.27,South,189,4.0,5.0,89,0.00,,,0.00,0.0,meteohub,2013-01-15 12:53:00,
2013-01-15 06:58:00,15.1,12.7,30.27,South,189,5.0,5.0,90,0.00,,,0.00,0.0,meteohub,2013-01-15 12:58:00,
2013-01-15 07:03:00,14.5,12.2,30.27,SW,227,5.0,5.0,90,0.00,,,0.00,0.0,meteohub,2013-01-15 13:03:00,
2013-01-15 07:08:00,13.3,10.4,30.27,WSW,255,6.0,6.0,88,0.00,,,0.00,0.0,meteohub,2013-01-15 13:08:00,
2013-01-15 07:13:00,12.6,9.9,30.27,West,263,6.0,6.0,89,0.00,,,0.00,0.0,meteohub,2013-01-15 13:13:00,
2013-01-15 07:18:00,12.0,9.3,30.28,West,263,6.0,7.0,89,0.00,,,0.00,0.0,meteohub,2013-01-15 13:18:00,
2013-01-15 07:23:00,11.8,9.1,30.28,West,263,7.0,7.0,89,0.00,,,0.00,0.0,meteohub,2013-01-15 13:23:00,
2013-01-15 07:28:00,11.5,9.0,30.27,West,263,6.0,7.0,89,0.00,,,0.00,0.0,meteohub,2013-01-15 13:28:00,
2013-01-15 07:33:00,11.3,8.8,30.27,West,267,8.0,8.0,89,0.00,,,0.00,0.0,meteohub,2013-01-15 13:33:00,
2013-01-15 07:38:00,11.5,9.0,30.28,West,269,8.0,8.0,89,0.00,,,0.00,0.0,meteohub,2013-01-15 13:38:00,
2013-01-15 07:43:00,11.5,9.0,30.28,West,271,8.0,8.0,89,0.00,,,0.00,0.0,meteohub,2013-01-15 13:43:00,
2013-01-15 07:48:00,11.1,8.6,30.28,West,279,7.0,9.0,89,0.00,,,0.00,0.0,meteohub,2013-01-15 13:48:00,
2013-01-15 07:53:00,11.3,8.8,30.28,West,281,5.0,9.0,89,0.00,,,0.00,0.0,meteohub,2013-01-15 13:53:00,
2013-01-15 07:58:00,11.7,9.3,30.29,West,281,5.0,9.0,90,0.00,,,0.00,0.0,meteohub,2013-01-15 13:58:00,
2013-01-15 08:03:00,11.8,9.5,30.29,West,281,6.0,8.0,90,0.00,,,0.00,7.0,meteohub,2013-01-15 14:03:00,
2013-01-15 08:09:00,11.7,9.1,30.29,West,281,6.0,7.0,89,0.00,,,0.00,11.0,meteohub,2013-01-15 14:09:00,
2013-01-15 08:14:00,11.8,9.1,30.29,West,281,6.0,7.0,89,0.00,,,0.00,16.0,meteohub,2013-01-15 14:14:00,
2013-01-15 08:19:00,11.8,9.1,30.29,West,281,5.0,7.0,89,0.00,,,0.00,23.0,meteohub,2013-01-15 14:19:00,
2013-01-15 08:24:00,12.0,9.3,30.29,West,281,6.0,7.0,89,0.00,,,0.00,30.0,meteohub,2013-01-15 14:24:00,
2013-01-15 08:29:00,12.0,9.3,30.29,West,281,5.0,7.0,89,0.00,,,0.00,39.0,meteohub,2013-01-15 14:29:00,
2013-01-15 08:34:00,12.6,10.2,30.29,West,280,6.0,7.0,90,0.00,,,0.00,51.0,meteohub,2013-01-15 14:34:00,
2013-01-15 08:39:00,12.9,10.2,30.29,West,280,5.0,7.0,89,0.00,,,0.00,60.0,meteohub,2013-01-15 14:39:00,
2013-01-15 08:44:00,13.1,10.4,30.30,West,280,6.0,7.0,89,0.00,,,0.00,72.0,meteohub,2013-01-15 14:44:00,
2013-01-15 08:49:00,13.5,11.1,30.29,West,280,4.0,7.0,90,0.00,,,0.00,88.0,meteohub,2013-01-15 14:49:00,
2013-01-15 08:54:00,14.0,11.7,30.30,West,279,5.0,6.0,90,0.00,,,0.00,102.0,meteohub,2013-01-15 14:54:00,
2013-01-15 08:59:00,14.4,11.7,30.30,West,279,4.0,6.0,89,0.00,,,0.00,116.0,meteohub,2013-01-15 14:59:00,
2013-01-15 09:04:00,15.1,12.7,30.30,West,279,5.0,6.0,90,0.00,,,0.00,130.0,meteohub,2013-01-15 15:04:00,
2013-01-15 09:09:00,15.6,13.3,30.30,West,279,5.0,6.0,90,0.00,,,0.00,149.0,meteohub,2013-01-15 15:09:00,
2013-01-15 09:14:00,16.3,14.0,30.30,West,279,6.0,7.0,90,0.00,,,0.00,165.0,meteohub,2013-01-15 15:14:00,
2013-01-15 09:19:00,16.5,14.2,30.30,West,275,4.0,7.0,90,0.00,,,0.00,181.0,meteohub,2013-01-15 15:19:00,
2013-01-15 09:24:00,17.1,14.7,30.30,West,275,4.0,7.0,90,0.00,,,0.00,202.0,meteohub,2013-01-15 15:24:00,
2013-01-15 09:29:00,17.6,15.3,30.30,West,275,5.0,7.0,90,0.00,,,0.00,213.0,meteohub,2013-01-15 15:29:00,
2013-01-15 09:34:00,17.8,15.1,30.30,West,275,3.0,7.0,89,0.00,,,0.00,229.0,meteohub,2013-01-15 15:34:00,
2013-01-15 09:39:00,18.1,15.6,30.30,West,275,4.0,7.0,90,0.00,,,0.00,241.0,meteohub,2013-01-15 15:39:00,
2013-01-15 09:44:00,18.7,16.2,30.31,West,275,4.0,5.0,90,0.00,,,0.00,253.0,meteohub,2013-01-15 15:44:00,
2013-01-15 09:49:00,19.2,17.1,30.30,West,265,5.0,5.0,91,0.00,,,0.00,264.0,meteohub,2013-01-15 15:49:00,
2013-01-15 09:54:00,19.6,17.1,30.30,WSW,253,6.0,6.0,90,0.00,,,0.00,278.0,meteohub,2013-01-15 15:54:00,
2013-01-15 09:59:00,19.6,17.1,30.30,WSW,250,4.0,7.0,90,0.00,,,0.00,290.0,meteohub,2013-01-15 15:59:00,
2013-01-15 10:05:00,19.8,17.2,30.30,WSW,250,4.0,7.0,90,0.00,,,0.00,302.0,meteohub,2013-01-15 16:05:00,
2013-01-15 10:10:00,20.5,18.0,30.31,WSW,250,4.0,7.0,90,0.00,,,0.00,315.0,meteohub,2013-01-15 16:10:00,
2013-01-15 10:15:00,21.2,19.0,30.31,WSW,254,6.0,7.0,91,0.00,,,0.00,362.0,meteohub,2013-01-15 16:15:00,
2013-01-15 10:20:00,21.7,19.2,30.31,West,259,6.0,7.0,90,0.00,,,0.00,332.0,meteohub,2013-01-15 16:20:00,
2013-01-15 10:25:00,22.3,19.8,30.30,West,273,8.0,8.0,90,0.00,,,0.00,345.0,meteohub,2013-01-15 16:25:00,
2013-01-15 10:30:00,22.6,19.9,30.31,West,266,4.0,8.0,89,0.00,,,0.00,357.0,meteohub,2013-01-15 16:30:00,
2013-01-15 10:35:00,23.4,20.3,30.31,WNW,284,8.0,9.0,88,0.00,,,0.00,366.0,meteohub,2013-01-15 16:35:00,
2013-01-15 10:40:00,23.7,20.7,30.30,WNW,288,8.0,9.0,88,0.00,,,0.00,381.0,meteohub,2013-01-15 16:40:00,
2013-01-15 10:45:00,24.1,20.8,30.31,WNW,288,11.0,11.0,87,0.00,,,0.00,394.0,meteohub,2013-01-15 16:45:00,
2013-01-15 10:50:00,24.1,20.8,30.31,WNW,284,10.0,11.0,87,0.00,,,0.00,316.0,meteohub,2013-01-15 16:50:00,
2013-01-15 10:55:00,24.3,20.7,30.30,WNW,299,11.0,15.0,86,0.00,,,0.00,422.0,meteohub,2013-01-15 16:55:00,
2013-01-15 11:00:00,24.1,20.3,30.30,NW,311,10.0,15.0,85,0.00,,,0.00,431.0,meteohub,2013-01-15 17:00:00,
2013-01-15 11:05:00,24.3,21.0,30.30,NW,309,10.0,15.0,87,0.00,,,0.00,383.0,meteohub,2013-01-15 17:05:00,
2013-01-15 11:10:00,24.6,21.0,30.30,NW,308,9.0,13.0,86,0.00,,,0.00,584.0,meteohub,2013-01-15 17:10:00,
2013-01-15 11:15:00,24.6,20.8,30.30,NW,313,12.0,15.0,85,0.00,,,0.00,403.0,meteohub,2013-01-15 17:15:00,
2013-01-15 11:20:00,25.0,21.4,30.30,NW,319,11.0,15.0,86,0.00,,,0.00,543.0,meteohub,2013-01-15 17:20:00,
2013-01-15 11:25:00,25.2,20.7,30.30,NW,304,9.0,15.0,83,0.00,,,0.00,492.0,meteohub,2013-01-15 17:25:00,
2013-01-15 11:31:00,25.2,20.1,30.30,NNW,339,10.0,15.0,81,0.00,,,0.00,501.0,meteohub,2013-01-15 17:31:00,
2013-01-15 11:36:00,25.5,20.3,30.30,NW,311,12.0,15.0,80,0.00,,,0.00,510.0,meteohub,2013-01-15 17:36:00,
2013-01-15 11:41:00,25.3,19.4,30.29,NW,317,10.0,15.0,78,0.00,,,0.00,510.0,meteohub,2013-01-15 17:41:00,
2013-01-15 11:46:00,25.7,20.1,30.29,NW,317,11.0,14.0,79,0.00,,,0.00,520.0,meteohub,2013-01-15 17:46:00,
2013-01-15 11:51:00,25.9,19.9,30.28,NW,317,10.0,14.0,78,0.00,,,0.00,531.0,meteohub,2013-01-15 17:51:00,
2013-01-15 11:56:00,26.4,20.1,30.28,NNW,339,11.0,14.0,77,0.00,,,0.00,534.0,meteohub,2013-01-15 17:56:00,
2013-01-15 12:01:00,26.2,19.9,30.27,NNW,331,9.0,15.0,77,0.00,,,0.00,536.0,meteohub,2013-01-15 18:01:00,
2013-01-15 12:06:00,26.6,19.8,30.27,NW,317,13.0,15.0,75,0.00,,,0.00,529.0,meteohub,2013-01-15 18:06:00,
2013-01-15 12:11:00,26.8,19.6,30.27,NW,304,8.0,15.0,74,0.00,,,0.00,520.0,meteohub,2013-01-15 18:11:00,
2013-01-15 12:16:00,26.8,19.0,30.27,NNW,327,7.0,15.0,72,0.00,,,0.00,550.0,meteohub,2013-01-15 18:16:00,
2013-01-15 12:21:00,27.1,19.4,30.27,NW,315,9.0,15.0,72,0.00,,,0.00,559.0,meteohub,2013-01-15 18:21:00,
2013-01-15 12:26:00,27.5,19.4,30.26,NW,316,11.0,15.0,71,0.00,,,0.00,564.0,meteohub,2013-01-15 18:26:00,
2013-01-15 12:31:00,28.0,19.6,30.26,NW,310,9.0,15.0,70,0.00,,,0.00,561.0,meteohub,2013-01-15 18:31:00,
2013-01-15 12:36:00,27.9,18.7,30.26,NW,318,9.0,15.0,68,0.00,,,0.00,563.0,meteohub,2013-01-15 18:36:00,
2013-01-15 12:41:00,28.2,19.0,30.25,NW,315,13.0,15.0,68,0.00,,,0.00,568.0,meteohub,2013-01-15 18:41:00,
2013-01-15 12:47:00,28.4,19.6,30.25,NW,321,8.0,15.0,69,0.00,,,0.00,573.0,meteohub,2013-01-15 18:47:00,
2013-01-15 12:52:00,28.2,18.3,30.25,NW,312,7.0,15.0,66,0.00,,,0.00,570.0,meteohub,2013-01-15 18:52:00,
2013-01-15 12:57:00,28.6,18.7,30.25,NW,318,8.0,14.0,66,0.00,,,0.00,570.0,meteohub,2013-01-15 18:57:00,
2013-01-15 13:02:00,29.1,19.6,30.25,NW,304,11.0,14.0,67,0.00,,,0.00,575.0,meteohub,2013-01-15 19:02:00,
2013-01-15 13:07:00,29.5,19.9,30.25,NW,319,7.0,14.0,67,0.00,,,0.00,568.0,meteohub,2013-01-15 19:07:00,
2013-01-15 13:12:00,29.5,19.6,30.24,NW,325,10.0,15.0,66,0.00,,,0.00,578.0,meteohub,2013-01-15 19:12:00,
2013-01-15 13:17:00,29.7,19.4,30.24,WNW,302,9.0,16.0,65,0.00,,,0.00,571.0,meteohub,2013-01-15 19:17:00,
2013-01-15 13:22:00,29.7,18.7,30.24,NW,309,7.0,16.0,63,0.00,,,0.00,564.0,meteohub,2013-01-15 19:22:00,
2013-01-15 13:27:00,30.0,19.0,30.24,NNW,338,10.0,13.0,63,0.00,,,0.00,568.0,meteohub,2013-01-15 19:27:00,
2013-01-15 13:32:00,30.2,18.3,30.24,NNW,338,7.0,13.0,61,0.00,,,0.00,566.0,meteohub,2013-01-15 19:32:00,
2013-01-15 13:37:00,30.4,18.5,30.24,NW,322,11.0,14.0,61,0.00,,,0.00,508.0,meteohub,2013-01-15 19:37:00,
2013-01-15 13:42:00,30.6,18.3,30.23,NNW,328,9.0,14.0,60,0.00,,,0.00,557.0,meteohub,2013-01-15 19:42:00,
2013-01-15 13:47:00,30.6,18.0,30.23,NW,324,8.0,14.0,59,0.00,,,0.00,540.0,meteohub,2013-01-15 19:47:00,
2013-01-15 13:52:00,30.6,18.0,30.23,NW,320,10.0,15.0,59,0.00,,,0.00,552.0,meteohub,2013-01-15 19:52:00,
2013-01-15 13:57:00,30.6,18.3,30.22,NW,320,9.0,15.0,60,0.00,,,0.00,554.0,meteohub,2013-01-15 19:57:00,
2013-01-15 14:02:00,30.7,17.8,30.22,NW,325,10.0,14.0,58,0.00,,,0.00,534.0,meteohub,2013-01-15 20:02:00,
2013-01-15 14:07:00,30.7,18.1,30.22,NNW,330,11.0,14.0,59,0.00,,,0.00,527.0,meteohub,2013-01-15 20:07:00,
2013-01-15 14:12:00,30.6,16.7,30.22,NW,315,5.0,14.0,56,0.00,,,0.00,531.0,meteohub,2013-01-15 20:12:00,
2013-01-15 14:17:00,30.6,16.7,30.22,NNW,336,9.0,13.0,56,0.00,,,0.00,524.0,meteohub,2013-01-15 20:17:00,
2013-01-15 14:22:00,30.9,17.4,30.22,NNW,340,5.0,12.0,57,0.00,,,0.00,513.0,meteohub,2013-01-15 20:22:00,
2013-01-15 14:27:00,31.1,17.6,30.22,NW,313,8.0,12.0,57,0.00,,,0.00,508.0,meteohub,2013-01-15 20:27:00,
2013-01-15 14:32:00,31.1,18.1,30.22,NNW,336,9.0,13.0,58,0.00,,,0.00,503.0,meteohub,2013-01-15 20:32:00,
2013-01-15 14:37:00,31.3,18.1,30.22,NW,322,9.0,13.0,58,0.00,,,0.00,494.0,meteohub,2013-01-15 20:37:00,
2013-01-15 14:43:00,31.5,18.0,30.22,NNW,344,8.0,13.0,57,0.00,,,0.00,485.0,meteohub,2013-01-15 20:43:00,
2013-01-15 14:48:00,31.5,17.6,30.22,North,355,3.0,13.0,56,0.00,,,0.00,473.0,meteohub,2013-01-15 20:48:00,
2013-01-15 14:53:00,32.2,18.7,30.22,NW,317,8.0,13.0,57,0.00,,,0.00,466.0,meteohub,2013-01-15 20:53:00,
2013-01-15 14:58:00,31.8,17.4,30.22,NNW,331,9.0,13.0,55,0.00,,,0.00,457.0,meteohub,2013-01-15 20:58:00,
2013-01-15 15:03:00,31.6,17.8,30.22,NNW,336,7.0,13.0,56,0.00,,,0.00,450.0,meteohub,2013-01-15 21:03:00,
2013-01-15 15:08:00,32.0,17.6,30.22,NW,309,6.0,11.0,55,0.00,,,0.00,439.0,meteohub,2013-01-15 21:08:00,
2013-01-15 15:13:00,31.8,17.4,30.22,NNW,334,9.0,12.0,55,0.00,,,0.00,424.0,meteohub,2013-01-15 21:13:00,
2013-01-15 15:18:00,31.6,17.2,30.22,NW,314,11.0,12.0,55,0.00,,,0.00,413.0,meteohub,2013-01-15 21:18:00,
2013-01-15 15:23:00,31.6,16.9,30.22,NW,310,5.0,12.0,54,0.00,,,0.00,404.0,meteohub,2013-01-15 21:23:00,
2013-01-15 15:28:00,32.0,17.6,30.22,NNW,341,7.0,13.0,55,0.00,,,0.00,390.0,meteohub,2013-01-15 21:28:00,
2013-01-15 15:33:00,32.0,17.2,30.22,NNW,337,7.0,13.0,54,0.00,,,0.00,387.0,meteohub,2013-01-15 21:33:00,
2013-01-15 15:38:00,31.8,17.4,30.22,NW,313,10.0,13.0,55,0.00,,,0.00,369.0,meteohub,2013-01-15 21:38:00,
2013-01-15 15:44:00,31.8,17.1,30.22,NNW,334,6.0,12.0,54,0.00,,,0.00,355.0,meteohub,2013-01-15 21:44:00,
2013-01-15 15:49:00,32.4,17.6,30.23,NW,311,10.0,11.0,54,0.00,,,0.00,341.0,meteohub,2013-01-15 21:49:00,
2013-01-15 15:54:00,32.2,17.4,30.23,NNW,334,9.0,15.0,54,0.00,,,0.00,322.0,meteohub,2013-01-15 21:54:00,
2013-01-15 15:59:00,32.0,16.9,30.23,NW,325,10.0,15.0,53,0.00,,,0.00,311.0,meteohub,2013-01-15 21:59:00,
2013-01-15 16:04:00,32.2,17.4,30.23,NW,325,9.0,15.0,54,0.00,,,0.00,304.0,meteohub,2013-01-15 22:04:00,
2013-01-15 16:09:00,32.2,17.4,30.24,NNW,341,8.0,14.0,54,0.00,,,0.00,288.0,meteohub,2013-01-15 22:09:00,
2013-01-15 16:14:00,31.8,16.7,30.24,NW,310,9.0,12.0,53,0.00,,,0.00,271.0,meteohub,2013-01-15 22:14:00,
2013-01-15 16:19:00,31.8,17.1,30.24,NNW,337,6.0,12.0,54,0.00,,,0.00,260.0,meteohub,2013-01-15 22:19:00,
2013-01-15 16:24:00,31.8,17.1,30.24,NW,317,8.0,11.0,54,0.00,,,0.00,246.0,meteohub,2013-01-15 22:24:00,
2013-01-15 16:29:00,31.8,17.1,30.24,NW,315,8.0,11.0,54,0.00,,,0.00,225.0,meteohub,2013-01-15 22:29:00,
2013-01-15 16:34:00,31.6,16.9,30.24,NNW,342,8.0,11.0,54,0.00,,,0.00,207.0,meteohub,2013-01-15 22:34:00,
2013-01-15 16:39:00,31.6,17.2,30.24,NNW,327,7.0,11.0,55,0.00,,,0.00,188.0,meteohub,2013-01-15 22:39:00,
2013-01-15 16:44:00,31.6,17.2,30.25,NNW,328,7.0,10.0,55,0.00,,,0.00,171.0,meteohub,2013-01-15 22:44:00,
2013-01-15 16:49:00,31.5,17.2,30.24,NW,325,9.0,10.0,55,0.00,,,0.00,151.0,meteohub,2013-01-15 22:49:00,
2013-01-15 16:54:00,31.3,17.1,30.25,NW,323,6.0,10.0,55,0.00,,,0.00,134.0,meteohub,2013-01-15 22:54:00,
2013-01-15 17:00:00,31.3,17.1,30.25,NW,321,7.0,10.0,55,0.00,,,0.00,116.0,meteohub,2013-01-15 23:00:00,
2013-01-15 17:05:00,31.1,16.9,30.25,NNW,327,7.0,10.0,55,0.00,,,0.00,98.0,meteohub,2013-01-15 23:05:00,
2013-01-15 17:10:00,30.9,16.7,30.25,NW,319,5.0,10.0,55,0.00,,,0.00,86.0,meteohub,2013-01-15 23:10:00,
2013-01-15 17:15:00,30.7,16.9,30.25,NW,313,5.0,10.0,56,0.00,,,0.00,70.0,meteohub,2013-01-15 23:15:00,
2013-01-15 17:20:00,30.6,17.1,30.25,NW,323,5.0,10.0,57,0.00,,,0.00,56.0,meteohub,2013-01-15 23:20:00,
2013-01-15 17:25:00,30.4,17.4,30.25,NNW,344,6.0,8.0,58,0.00,,,0.00,42.0,meteohub,2013-01-15 23:25:00,
2013-01-15 17:30:00,30.0,17.4,30.25,NW,326,6.0,7.0,59,0.00,,,0.00,33.0,meteohub,2013-01-15 23:30:00,
2013-01-15 17:35:00,29.7,17.1,30.25,NW,323,6.0,7.0,59,0.00,,,0.00,23.0,meteohub,2013-01-15 23:35:00,
2013-01-15 17:40:00,29.1,16.9,30.25,NNW,327,7.0,7.0,60,0.00,,,0.00,16.0,meteohub,2013-01-15 23:40:00,
2013-01-15 17:45:00,28.6,16.9,30.26,NNW,329,5.0,7.0,61,0.00,,,0.00,12.0,meteohub,2013-01-15 23:45:00,
2013-01-15 17:50:00,28.0,16.7,30.26,NNW,329,5.0,7.0,62,0.00,,,0.00,7.0,meteohub,2013-01-15 23:50:00,
2013-01-15 17:55:00,27.5,16.5,30.26,NW,323,5.0,7.0,63,0.00,,,0.00,0.0,meteohub,2013-01-15 23:55:00,
2013-01-15 18:00:00,27.1,16.5,30.26,NW,326,3.0,5.0,64,0.00,,,0.00,0.0,meteohub,2013-01-16 00:00:00,
2013-01-15 18:05:00,27.0,16.3,30.26,North,351,3.0,5.0,64,0.00,,,0.00,0.0,meteohub,2013-01-16 00:05:00,
2013-01-15 18:10:00,27.0,16.7,30.26,NNW,347,2.0,5.0,65,0.00,,,0.00,0.0,meteohub,2013-01-16 00:10:00,
2013-01-15 18:15:00,26.8,16.5,30.26,NNW,346,1.0,5.0,65,0.00,,,0.00,0.0,meteohub,2013-01-16 00:15:00,
2013-01-15 18:20:00,26.4,16.5,30.26,NNW,346,0.0,4.0,66,0.00,,,0.00,0.0,meteohub,2013-01-16 00:20:00,
2013-01-15 18:25:00,26.4,16.5,30.25,NNW,344,0.0,3.0,66,0.00,,,0.00,0.0,meteohub,2013-01-16 00:25:00,
2013-01-15 18:31:00,26.4,16.9,30.25,NNW,344,0.0,2.0,67,0.00,,,0.00,0.0,meteohub,2013-01-16 00:31:00,
2013-01-15 18:36:00,26.6,17.1,30.25,NNW,344,0.0,2.0,67,0.00,,,0.00,0.0,meteohub,2013-01-16 00:36:00,
2013-01-15 18:41:00,26.4,16.9,30.25,NNW,344,0.0,1.0,67,0.00,,,0.00,0.0,meteohub,2013-01-16 00:41:00,
2013-01-15 18:46:00,26.2,16.7,30.25,NNW,343,0.0,1.0,67,0.00,,,0.00,0.0,meteohub,2013-01-16 00:46:00,
2013-01-15 18:51:00,26.2,16.7,30.26,NNW,343,0.0,1.0,67,0.00,,,0.00,0.0,meteohub,2013-01-16 00:51:00,
2013-01-15 18:56:00,25.9,16.5,30.25,NNW,343,2.0,2.0,67,0.00,,,0.00,0.0,meteohub,2013-01-16 00:56:00,
2013-01-15 19:01:00,25.0,16.3,30.26,NNW,343,3.0,3.0,69,0.00,,,0.00,0.0,meteohub,2013-01-16 01:01:00,
2013-01-15 19:06:00,24.3,16.0,30.26,NNW,343,3.0,4.0,70,0.00,,,0.00,0.0,meteohub,2013-01-16 01:06:00,
2013-01-15 19:11:00,23.4,15.6,30.26,NNW,341,4.0,5.0,72,0.00,,,0.00,0.0,meteohub,2013-01-16 01:11:00,
2013-01-15 19:16:00,23.2,15.4,30.26,NW,315,5.0,5.0,72,0.00,,,0.00,0.0,meteohub,2013-01-16 01:16:00,
2013-01-15 19:21:00,22.8,15.4,30.26,NW,307,4.0,6.0,73,0.00,,,0.00,0.0,meteohub,2013-01-16 01:21:00,
2013-01-15 19:26:00,22.8,15.8,30.27,NW,307,5.0,6.0,74,0.00,,,0.00,0.0,meteohub,2013-01-16 01:26:00,
2013-01-15 19:31:00,23.0,15.6,30.26,NW,306,5.0,6.0,73,0.00,,,0.00,0.0,meteohub,2013-01-16 01:31:00,
2013-01-15 19:36:00,22.8,15.4,30.26,NW,306,4.0,6.0,73,0.00,,,0.00,0.0,meteohub,2013-01-16 01:36:00,
2013-01-15 19:41:00,22.8,15.1,30.27,NW,306,4.0,6.0,72,0.00,,,0.00,0.0,meteohub,2013-01-16 01:41:00,
2013-01-15 19:46:00,22.6,14.9,30.26,NW,306,4.0,5.0,72,0.00,,,0.00,0.0,meteohub,2013-01-16 01:46:00,
2013-01-15 19:51:00,22.5,14.7,30.26,NW,306,5.0,5.0,72,0.00,,,0.00,0.0,meteohub,2013-01-16 01:51:00,
2013-01-15 19:57:00,21.9,14.5,30.27,NW,304,6.0,6.0,73,0.00,,,0.00,0.0,meteohub,2013-01-16 01:57:00,
2013-01-15 20:02:00,21.6,14.5,30.27,WNW,301,5.0,6.0,74,0.00,,,0.00,0.0,meteohub,2013-01-16 02:02:00,
2013-01-15 20:07:00,21.4,14.7,30.27,WNW,301,4.0,6.0,75,0.00,,,0.00,0.0,meteohub,2013-01-16 02:07:00,
2013-01-15 20:12:00,21.4,14.7,30.27,WNW,301,4.0,6.0,75,0.00,,,0.00,0.0,meteohub,2013-01-16 02:12:00,
2013-01-15 20:17:00,21.0,14.7,30.26,WNW,301,3.0,6.0,76,0.00,,,0.00,0.0,meteohub,2013-01-16 02:17:00,
2013-01-15 20:22:00,21.2,14.9,30.27,WNW,301,4.0,5.0,76,0.00,,,0.00,0.0,meteohub,2013-01-16 02:22:00,
2013-01-15 20:27:00,21.0,14.7,30.27,WNW,301,3.0,5.0,76,0.00,,,0.00,0.0,meteohub,2013-01-16 02:27:00,
2013-01-15 20:32:00,21.0,14.7,30.27,WNW,301,4.0,4.0,76,0.00,,,0.00,0.0,meteohub,2013-01-16 02:32:00,
2013-01-15 20:37:00,21.0,14.9,30.26,WNW,301,5.0,5.0,77,0.00,,,0.00,0.0,meteohub,2013-01-16 02:37:00,
2013-01-15 20:42:00,21.0,14.9,30.26,WNW,301,4.0,5.0,77,0.00,,,0.00,0.0,meteohub,2013-01-16 02:42:00,
2013-01-15 20:47:00,21.0,14.9,30.27,WNW,301,4.0,5.0,77,0.00,,,0.00,0.0,meteohub,2013-01-16 02:47:00,
2013-01-15 20:52:00,20.8,14.7,30.26,WNW,301,4.0,5.0,77,0.00,,,0.00,0.0,meteohub,2013-01-16 02:52:00,
2013-01-15 20:57:00,20.8,14.7,30.26,WNW,301,4.0,5.0,77,0.00,,,0.00,0.0,meteohub,2013-01-16 02:57:00,
2013-01-15 21:02:00,21.0,14.9,30.26,WNW,301,5.0,5.0,77,0.00,,,0.00,0.0,meteohub,2013-01-16 03:02:00,
2013-01-15 21:07:00,21.0,14.9,30.26,WNW,292,4.0,6.0,77,0.00,,,0.00,0.0,meteohub,2013-01-16 03:07:00,
2013-01-15 21:12:00,21.0,14.9,30.26,WNW,287,5.0,6.0,77,0.00,,,0.00,0.0,meteohub,2013-01-16 03:12:00,
2013-01-15 21:17:00,20.8,14.7,30.26,WNW,284,6.0,6.0,77,0.00,,,0.00,0.0,meteohub,2013-01-16 03:17:00,
2013-01-15 21:22:00,20.7,14.5,30.26,WNW,283,6.0,6.0,77,0.00,,,0.00,0.0,meteohub,2013-01-16 03:22:00,
2013-01-15 21:27:00,20.3,14.5,30.26,West,280,5.0,7.0,78,0.00,,,0.00,0.0,meteohub,2013-01-16 03:27:00,
2013-01-15 21:32:00,20.1,14.4,30.25,West,280,6.0,7.0,78,0.00,,,0.00,0.0,meteohub,2013-01-16 03:32:00,
2013-01-15 21:37:00,20.1,14.4,30.25,West,271,6.0,7.0,78,0.00,,,0.00,0.0,meteohub,2013-01-16 03:37:00,
2013-01-15 21:42:00,20.1,14.7,30.25,West,268,6.0,7.0,79,0.00,,,0.00,0.0,meteohub,2013-01-16 03:42:00,
2013-01-15 21:47:00,19.9,14.5,30.25,West,261,6.0,7.0,79,0.00,,,0.00,0.0,meteohub,2013-01-16 03:47:00,
2013-01-15 21:52:00,19.9,14.5,30.25,WSW,254,8.0,8.0,79,0.00,,,0.00,0.0,meteohub,2013-01-16 03:52:00,
2013-01-15 21:57:00,19.8,14.4,30.25,WSW,254,8.0,8.0,79,0.00,,,0.00,0.0,meteohub,2013-01-16 03:57:00,
2013-01-15 22:02:00,19.6,14.2,30.25,WSW,254,8.0,9.0,79,0.00,,,0.00,0.0,meteohub,2013-01-16 04:02:00,
2013-01-15 22:07:00,19.2,13.8,30.25,WSW,254,7.0,9.0,79,0.00,,,0.00,0.0,meteohub,2013-01-16 04:07:00,
2013-01-15 22:12:00,19.0,13.8,30.25,WSW,254,7.0,9.0,80,0.00,,,0.00,0.0,meteohub,2013-01-16 04:12:00,
2013-01-15 22:17:00,18.9,13.5,30.25,WSW,254,7.0,9.0,79,0.00,,,0.00,0.0,meteohub,2013-01-16 04:17:00,
2013-01-15 22:22:00,18.3,12.9,30.25,WSW,254,7.0,8.0,79,0.00,,,0.00,0.0,meteohub,2013-01-16 04:22:00,
2013-01-15 22:27:00,18.1,13.1,30.25,WSW,254,7.0,8.0,80,0.00,,,0.00,0.0,meteohub,2013-01-16 04:27:00,
2013-01-15 22:32:00,18.1,13.1,30.24,WSW,254,7.0,8.0,80,0.00,,,0.00,0.0,meteohub,2013-01-16 04:32:00,
2013-01-15 22:37:00,18.1,13.3,30.25,WSW,254,7.0,8.0,81,0.00,,,0.00,0.0,meteohub,2013-01-16 04:37:00,
2013-01-15 22:42:00,18.1,13.3,30.25,WSW,252,8.0,8.0,81,0.00,,,0.00,0.0,meteohub,2013-01-16 04:42:00,
2013-01-15 22:47:00,18.7,14.2,30.24,WSW,248,9.0,9.0,82,0.00,,,0.00,0.0,meteohub,2013-01-16 04:47:00,
2013-01-15 22:52:00,19.0,14.2,30.24,WSW,248,8.0,10.0,81,0.00,,,0.00,0.0,meteohub,2013-01-16 04:52:00,
2013-01-15 22:57:00,19.0,14.2,30.25,WSW,248,10.0,10.0,81,0.00,,,0.00,0.0,meteohub,2013-01-16 04:57:00,
2013-01-15 23:00:00,19.0,13.8,30.24,WSW,248,8.0,10.0,80,0.00,,,0.00,0.0,meteohub,2013-01-16 05:00:00,
2013-01-15 23:01:00,19.0,13.8,30.24,WSW,248,9.0,10.0,80,0.00,,,0.00,0.0,meteohub,2013-01-16 05:01:00,
2013-01-15 23:02:00,19.0,13.8,30.24,WSW,248,9.0,10.0,80,0.00,,,0.00,0.0,meteohub,2013-01-16 05:02:00,
2013-01-15 23:03:00,19.0,13.8,30.24,WSW,248,8.0,10.0,80,0.00,,,0.00,0.0,meteohub,2013-01-16 05:03:00,
2013-01-15 23:08:00,18.9,13.6,30.25,WSW,247,8.0,10.0,80,0.00,,,0.00,0.0,meteohub,2013-01-16 05:08:00,
2013-01-15 23:14:00,18.9,13.6,30.25,WSW,247,8.0,10.0,80,0.00,,,0.00,0.0,meteohub,2013-01-16 05:14:00,
2013-01-15 23:19:00,19.0,13.8,30.25,WSW,246,9.0,10.0,80,0.00,,,0.00,0.0,meteohub,2013-01-16 05:19:00,
2013-01-15 23:24:00,19.2,14.0,30.25,WSW,243,10.0,11.0,80,0.00,,,0.00,0.0,meteohub,2013-01-16 05:24:00,
2013-01-15 23:29:00,19.0,13.8,30.25,WSW,244,9.0,11.0,80,0.00,,,0.00,0.0,meteohub,2013-01-16 05:29:00,
2013-01-15 23:34:00,18.9,13.6,30.25,WSW,245,10.0,11.0,80,0.00,,,0.00,0.0,meteohub,2013-01-16 05:34:00,
2013-01-15 23:39:00,18.7,13.5,30.25,WSW,244,8.0,10.0,80,0.00,,,0.00,0.0,meteohub,2013-01-16 05:39:00,
2013-01-15 23:44:00,18.7,13.5,30.25,WSW,246,10.0,10.0,80,0.00,,,0.00,0.0,meteohub,2013-01-16 05:44:00,
2013-01-15 23:49:00,18.7,13.5,30.26,WSW,248,10.0,11.0,80,0.00,,,0.00,0.0,meteohub,2013-01-16 05:49:00,
2013-01-15 23:54:00,18.5,13.3,30.26,WSW,246,10.0,11.0,80,0.00,,,0.00,0.0,meteohub,2013-01-16 05:54:00,
2013-01-15 23:59:00,18.5,13.3,30.26,WSW,247,8.0,11.0,80,0.00,,,0.00,0.0,meteohub,2013-01-16 05:59:00,